Погода в Уортинге

Великобритания     50°49′01″N   0°21′00″E
темп.,
°C
ветер,
м/с
пор.,
м/с
влажн.,
%
обл.,
%
осадки,
мм/ч
давл.,
гПа
погр.,
м
8 декабря, ср
ср800:00+9зюз161874100 1.8 9881673
03:00+9зюз151770100 0.8 9891677
06:00+9зюз1517665 1.0 9911619
09:00+9з1517645 0.0 9931647
12:00+8з15186846 0.1 9951600
15:00+8з13167095 0.2 9961463
18:00+9з13166345 0.3 9991622
21:00+7з141971100 0.3 10011616
9 декабря, чт
чт900:00+7з151986100 1.3 10011364
03:00+8з131670100 0.1 10011336
06:00+8зсз11137237 0.1 1002986
09:00+8з91170100 0.0 1003974
12:00+8з796797 0.0 1003959
15:00+9з786341 0.0 10011297
18:00+10ююз7864100 0.1 9991272
21:00+9ю111190100 3.3 995723
10 декабря, пт
пт1000:00+10зсз151783100 4.3 992929
03:00+8сз141887100 0.4 9941252
06:00+7сз1317755 0.4 9961269
09:00+6сз1216756 0.0 9991207
12:00+7сз1216725 0.0 10011241
15:00+7сз1216710 0.0 10041200
18:00+7сз1215730 0.0 10071025
21:00+6сз1014730 0.0 1010869
11 декабря, сб
сб1100:00+6сз813740 0.0 1013674
03:00+6сз71175100 0.0 1015524
06:00+6сз47755 0.0 1017349
09:00+6зсз347567 0.0 1019260
12:00+7з457597 0.0 1020376
15:00+9зюз5771100 0.0 1021866
18:00+9юз7883100 0.7 1021679
21:00+10ююз111289100 1.5 1020699
12 декабря, вс
вс1200:00+11юз111695100 4.3 1020570
03:00+12зюз81296100 0.4 1020343
06:00+12зюз8149098 0.4 1020313
09:00+12зюз9149394 0.0 1021363
12:00+12зюз101591100 0.0 1022307
15:00+12юз101589100 0.1 1022359
18:00+12юз101486100 0.1 1022356
21:00+12юз111587100 0.1 1022432